Flag for France Weather past 2 weeks in Mulhouse, France

Now
63 °F

Broken clouds.


Feels Like: 63 °F
Forecast: 47 / 62 °F
Wind: 3 mph from Southeast

Location: Bale-Mulhouse

Current Time: Sep 21, 2014 at 9:05:10 AM

Latest Report: Sep 21, 2014 at 8:30 AM


Visibility: N/A

Pressure: 30.04 "Hg

Humidity: 94%

Dew point: 61 °F

Location of MulhouseLocation

Historic Weather in Mulhouse — Graph

°F

Mulhouse temperature yesterday

Maximum temperature yesterday: 77 °F (at 3:00 PM)
Minimum temperature yesterday: 59 °F (at 7:00 AM)
Average temperature yesterday: 65 °F

Past Weeks' High & Low Weather Summary

 TemperatureHumidityPressure
High81 °F (Sep 6, 3:30 PM)100% (Sep 6, 7:00 AM)30.15 "Hg (Sep 6, 7:00 AM)
Low48 °F (Sep 11, 5:30 AM)48% (Sep 6, 3:30 PM)29.83 "Hg (Sep 17, 4:30 PM)
Average63 °F83%29.99 "Hg
* Reported Sep 6 7:00 AM — Sep 21 7:30 AM, Mulhouse, Weather by CustomWeather, © 2014

Note: Actual official high and low records may vary slightly from our data, if they occured in-between our weather recording intervals... More about our weather records

Advertising

Mulhouse weather history for previous 24 hours

 ConditionsComfort  
Time TempWeatherWind HumidityBarometerVisibility
7:30 AM
Sep 21
63 °FPartly cloudy.3 mph88%30.04 "HgN/A
7:00 AM63 °FPartly cloudy.2 mph88%30.04 "HgN/A
6:30 AM63 °FPartly cloudy.5 mph94%30.04 "HgN/A
6:00 AM63 °FPassing clouds.3 mph88%30.04 "HgN/A
5:30 AM63 °FPassing clouds.3 mph94%30.01 "HgN/A
5:00 AM63 °FPassing clouds.2 mph94%30.01 "HgN/A
4:30 AM63 °FPassing clouds.3 mph94%30.04 "HgN/A
4:00 AM63 °FMild.6 mph94%30.04 "HgN/A
3:30 AM63 °FThundershowers. Passing clouds.5 mph94%30.04 "HgN/A
3:00 AM63 °FThundershowers. Passing clouds.2 mph94%30.01 "HgN/A
2:30 AM63 °FPassing clouds.2 mph94%30.04 "HgN/A
2:00 AM63 °FPartly cloudy.1 mph94%30.04 "HgN/A
1:30 AM61 °FThundershowers. Mostly cloudy.1 mph100%30.04 "HgN/A
1:00 AM61 °FClear.No wind94%30.04 "HgN/A
12:30 AM61 °FClear.No wind94%30.04 "HgN/A
12:00 AM61 °FPassing clouds.No wind94%30.04 "HgN/A
11:30 PM
Sep 20
59 °FPassing clouds.3 mph100%30.04 "HgN/A
10:30 PM61 °FPassing clouds.2 mph94%30.04 "HgN/A
10:00 PM63 °FClear.3 mph88%30.04 "Hg10 mi
9:30 PM63 °FClear.5 mph88%30.04 "Hg10 mi
9:00 PM64 °FPassing clouds.3 mph83%30.04 "HgN/A
8:30 PM66 °FPassing clouds.2 mph78%30.04 "HgN/A
8:00 PM66 °FPassing clouds.6 mph83%30.01 "HgN/A
7:30 PM68 °FPassing clouds.3 mph73%30.01 "HgN/A
3:30 PM77 °FScattered clouds.8 mph61%30.01 "HgN/A
3:00 PM77 °FScattered clouds.9 mph61%30.01 "HgN/A
2:30 PM75 °FScattered clouds.6 mph65%30.01 "HgN/A
2:00 PM75 °FBroken clouds.9 mph65%30.01 "HgN/A
1:30 PM75 °FBroken clouds.6 mph65%30.01 "HgN/A
1:00 PM73 °FBroken clouds.9 mph69%30.04 "HgN/A
12:30 PM73 °FPartly sunny.6 mph65%30.04 "HgN/A
12:00 PM73 °FScattered clouds.3 mph69%30.04 "HgN/A
11:30 AM70 °FScattered clouds.3 mph78%30.04 "HgN/A
11:00 AM70 °FScattered clouds.3 mph78%30.04 "HgN/A
10:30 AM68 °FScattered clouds.5 mph83%30.04 "HgN/A
10:00 AM64 °FScattered clouds.3 mph94%30.01 "HgN/A
9:30 AM61 °FScattered clouds.5 mph100%30.01 "HgN/A
9:00 AM61 °FPartly sunny.2 mph94%30.01 "HgN/A
Weather by CustomWeather, © 2014

See weather overviewHow to use our weather pages